Tracking 28790 objects as of 19-Apr-2024
HD Live streaming from Space Station
objects crossing your sky now

COSMOS 773

Track COSMOS 773 now!
10-day predictions
COSMOS 773 is classified as:


NORAD ID: 8343
Int'l Code: 1975-094A
Perigee: 773.0 km
Apogee: 788.6 km
Inclination: 74.1 °
Period: 100.3 minutes
Semi major axis: 7151 km
RCS: 3.1365 m2 (large)
Launch date: September 30, 1975
Source: Commonwealth of Independent States (former USSR) (CIS)
Launch site: PLESETSK MISSILE AND SPACE COMPLEX (PKMTR)
Your satellite tracking list
Your tracking list is empty




NASA's NSSDC Master Catalog

Two Line Element Set (TLE):
1 08343U 75094A   24109.90953348  .00000502  00000-0  18369-3 0  9997
2 08343  74.0577   2.6567 0010914   9.9524 350.1843 14.35413117539090
Source of the keplerian elements: AFSPC